[Iaude] MPEC N41: 2024 NO [a=1.11,e=0.08,i=26.9,H=21.8,PHA]
    mpec at cfa.harvard.edu 
    mpec at cfa.harvard.edu
       
    Fri Jul  5 09:59:29 EDT 2024
    
    
  
M.P.E.C. 2024-N41                                  Issued 2024 July 5, 13:57 UT
     The Minor Planet Electronic Circulars contain information on unusual
         minor planets, routine data on comets and natural satellites,
         and occasional editorial announcements.  They are published
    on behalf of Division F of the International Astronomical Union by the
          Minor Planet Center, Smithsonian Astrophysical Observatory,
                          Cambridge, MA 02138, U.S.A.
			  
             Prepared using the Tamkin Foundation Computer Network
                              MPC at CFA.HARVARD.EDU
            URL https://www.minorplanetcenter.net/    ISSN 1523-6714
                                    2024 NO                                     
Observations:
     K24N00O* C2024 07 03.49090722 28 25.598+27 48 55.09         21.75wXEN041F52
     K24N00O  C2024 07 03.50404522 28 26.533+27 48 34.79         21.91wXEN041F52
     K24N00O  C2024 07 03.51725322 28 27.478+27 48 14.32         21.97GVEN041F52
     K24N00O  C2024 07 03.59193122 28 32.671+27 46 15.98         22.25GVEN041F52
     K24N00O  C2024 07 03.59275922 28 32.698+27 46 14.91         22.18GVEN041F52
     K24N00O KC2024 07 05.27432 22 30 46.52 +26 59 05.7          21.4 RVEN041291
     K24N00O KC2024 07 05.28108 22 30 46.98 +26 58 54.6          21.1 RVEN041291
     K24N00O 3C2024 07 05.55927822 31 07.346+26 50 51.25         21.43GVEN041T14
     K24N00O 3C2024 07 05.56025422 31 07.410+26 50 49.55         21.47GVEN041T14
     K24N00O 3C2024 07 05.56123222 31 07.475+26 50 47.78         21.39GVEN041T14
Observer details:
291 LPL/Spacewatch II.  Observer C. Lejoly.  1.8-m f/2.7 reflector + CCD.
F52 Pan-STARRS 2, Haleakala.  Observers J. Herman, T. Lowe, P. Minguez, A.
    Schultz, I. Smith.  Measurers K. Chambers, T. de Boer, J. Fairlamb, H.
    Gao, M. Huber, C.-C. Lin, E. Magnier, Y. Ramanjooloo, R. Wainscoat, R.
    Weryk.  1.8-m Ritchey-Chretien + CCD.
T14 Canada-France-Hawaii Telescope, Maunakea.  Observers R. Wainscoat, H.
    Januszewski, H. Flewelling.  Measurers R. Weryk, R. Wainscoat.  3.6-m
    f/4.1 reflector + CCD.
Orbital elements:
2024 NO                                             PHA, Earth MOID = 0.0372 AU
Epoch 2024 Mar. 31.0 TT = JDT 2460400.5                 MPC                     
M  60.71653              (2000.0)            P               Q                  
n   0.84741820     Peri.   11.49855     -0.82785931     -0.46441988             
a   1.1059552      Node   135.94438     +0.47208034     -0.87974680             
e   0.0765871      Incl.   26.89822     +0.30296719     +0.10178278             
P   1.16           H   21.85          G   0.15           U   9                  
Residuals in seconds of arc
240703 F52  0.1-  0.0     240703 F52  0.2+  0.2-    240705 T14  0.1-  0.0
240703 F52  0.0   0.0     240705 291  0.4+  0.1-    240705 T14  0.1-  0.1-
240703 F52  0.2+  0.1+    240705 291  0.1-  0.3+
240703 F52  0.6+  0.4-    240705 T14  0.1-  0.1-
Ephemeris:
2024 NO                  a,e,i = 1.11, 0.08, 27                  q = 1.0213
Date    TT    R. A. (2000) Decl.     Delta      r    Elong.  Phase     V
2024 06 05    21 44 33.2 +33 33 27   0.5251  1.1489    90.8    62.0    23.0
...
2024 06 20    22 08 57.6 +31 53 03   0.4436  1.1633    97.9    59.9    22.6
...
2024 06 28    22 20 50.1 +29 52 48   0.3950  1.1699   102.9    57.9    22.3
...
2024 07 04    22 29 05.0 +27 35 16   0.3572  1.1743   107.4    55.7    22.0
2024 07 05    22 30 23.6 +27 07 14   0.3509  1.1750   108.3    55.3    21.9
2024 07 06    22 31 41.0 +26 37 31   0.3446  1.1757   109.1    54.8    21.9
...
2024 07 12    22 38 58.6 +22 58 16   0.3070  1.1794   115.0    51.4    21.5
...
2024 07 20    22 47 21.3 +15 42 48   0.2597  1.1836   124.8    44.8    21.0
...
2024 08 04    22 57 16.0 -08 50 46   0.1973  1.1889   149.6    25.6    19.9
A. U. Tomatic                (C) Copyright 2024 MPC           M.P.E.C. 2024-N41
    
    
More information about the Iaude
mailing list